Regional Weather Roundup
Issued by NWS

Home | Current Version | Previous Version | Graphics & Text | Print | Product List | Glossary On
Versions: 1 2 3 4 5 6 7 8 9 10 11 12 13 14 15 16 17 18 19 20 21 22 23 24 25 26 27 28 29 30 31 32 33 34 35 36 37 38 39 40 41 42 43 44 45 46 47 48 49 50
000
ASUS43 KBIS 242231
RWRND
NORTH DAKOTA REGIONAL WEATHER ROUNDUP
NATIONAL WEATHER SERVICE EASTERN NORTH DAKOTA/GRAND FORKS ND
500 PM CDT WED MAY 24 2017

  NOTE: "FAIR" INDICATES FEW OR NO CLOUDS BELOW 12,000 FEET WITH NO
  SIGNIFICANT WEATHER AND/OR OBSTRUCTIONS TO VISIBILITY.

NDZ001>003-009>011-017-242300-
...NORTHWEST NORTH DAKOTA...

CITY           SKY/WX    TMP DP  RH WIND       PRES   REMARKS
WILLISTON      FAIR      77  41  27 S13G28    29.27F
MINOT          FAIR      73  35  25 SE22G38   29.39F
MINOT AFB      FAIR      72  35  25 S31G37    29.38F
$$

NDZ018>021-031>035-040>046-242300-
...SOUTHWEST NORTH DAKOTA...

CITY           SKY/WX    TMP DP  RH WIND       PRES   REMARKS
BISMARCK       FAIR      71  40  32 S24G35    29.47F
DICKINSON      FAIR      72  35  25 S30G39    29.34F
GARRISON         N/A     70  40  33 S23G32    29.40F
HETTINGER      FAIR      72  38  29 SE28G38   29.39F
$$

NDZ004>008-012>016-024-026-027-054-242300-
...NORTHEAST NORTH DAKOTA...

CITY           SKY/WX    TMP DP  RH WIND       PRES   REMARKS
GRAND FORKS    PTSUNNY   68  42  38 SE22G28   29.63F
GRAND FORKS AF PTSUNNY   65  41  41 S18G26    29.62F
DEVILS LAKE    FAIR      64  42  44 S22G30    29.57F
$$

NDZ022-023-025-028>030-036>039-047>053-242300-
...SOUTHEAST NORTH DAKOTA...

CITY           SKY/WX    TMP DP  RH WIND       PRES   REMARKS
JAMESTOWN      FAIR      64  43  46 S17G29    29.58F
FARGO          CLOUDY    66  42  41 S16G24    29.65F
WAHPETON       CLOUDY    63  41  45 SE14      29.68F
$$



USA.gov is the U.S. government's official web portal to all federal, state and local government web resources and services.